SPACEBEE-166 (55092 NORAD) Tracking and Keplerian Element Data

This shows tracking and keplerian element data for the satellite.

Feedback or suggestion? Click here.




ElementValue
Catalog55092
NameSPACEBEE-166
Epoch Orbit1886
Epoch Day127.08233863
Epoch Year2023
RAAN187.6154
Inclination97.4791
Eccentricity0.0018183
Argument of Perigee144.6482
Mean Anonmoly215.5961
Mean Motion15.18991147
Decay Rate0.00025893
L11 55092U 23001CM 23127.08233863 .00025893 00000+0 12324-2 0 9995
L22 55092 97.4791 187.6154 0018183 144.6482 215.5961 15.18991147 18860



Live tracking and technical data element details for SPACEBEE-166 (NORAD 55092). SPACEBEE-166 can be tracked NOW for your location showing map with azimuth and elevation plus other details from your city location.







IsCatalogInMostPopularTable: catalog: 55092, numindb: -1

Insert: records affected: 1


GetName: 55092 SPACEBEE-166

Hit Count: inserted at: Mon, 05 Jun 2023 19:03:04 GMT